TimeCDT,TemperatureF,Dew PointF,Humidity,Sea Level PressureIn,VisibilityMPH,Wind Direction,Wind SpeedMPH,Gust SpeedMPH,PrecipitationIn,Events,Conditions,WindDirDegrees,DateUTC
12:15 AM,72.5,56.3,57,30.21,10.0,SSE,6.9,-,N/A,,Clear,160,2013-08-27 05:15:00
12:35 AM,71.8,56.3,58,30.21,10.0,SSE,8.1,-,N/A,,Clear,160,2013-08-27 05:35:00
12:55 AM,70.7,56.7,61,30.21,10.0,South,4.6,-,N/A,,Clear,170,2013-08-27 05:55:00
1:15 AM,68.9,56.3,64,30.21,10.0,South,4.6,-,N/A,,Clear,170,2013-08-27 06:15:00
1:35 AM,68.4,56.5,66,30.21,10.0,South,5.8,-,N/A,,Clear,180,2013-08-27 06:35:00
1:55 AM,68.0,56.5,67,30.21,10.0,South,4.6,-,N/A,,Clear,180,2013-08-27 06:55:00
2:15 AM,66.4,55.9,69,30.20,10.0,South,4.6,-,N/A,,Clear,190,2013-08-27 07:15:00
2:35 AM,65.5,55.8,71,30.20,10.0,South,6.9,-,N/A,,Clear,180,2013-08-27 07:35:00
2:55 AM,64.9,56.3,74,30.20,10.0,South,5.8,-,N/A,,Clear,170,2013-08-27 07:55:00
3:15 AM,64.6,56.5,75,30.20,10.0,South,4.6,-,N/A,,Clear,180,2013-08-27 08:15:00
3:35 AM,64.4,56.3,75,30.20,10.0,South,6.9,-,N/A,,Clear,190,2013-08-27 08:35:00
3:55 AM,64.0,56.3,76,30.20,10.0,South,5.8,-,N/A,,Clear,190,2013-08-27 08:55:00
4:15 AM,63.5,56.3,77,30.19,10.0,South,5.8,-,N/A,,Clear,190,2013-08-27 09:15:00
4:35 AM,63.0,56.5,79,30.19,10.0,South,3.5,-,N/A,,Clear,190,2013-08-27 09:35:00
4:55 AM,62.6,56.3,80,30.19,10.0,SSW,4.6,-,N/A,,Clear,200,2013-08-27 09:55:00
5:15 AM,63.0,56.1,78,30.19,10.0,Calm,Calm,-,N/A,,Clear,0,2013-08-27 10:15:00
5:35 AM,62.1,56.3,81,30.19,10.0,Calm,Calm,-,N/A,,Clear,0,2013-08-27 10:35:00
5:55 AM,61.9,55.8,80,30.19,10.0,South,5.8,-,N/A,,Clear,190,2013-08-27 10:55:00
6:15 AM,60.4,55.4,83,30.20,10.0,South,5.8,-,N/A,,Clear,190,2013-08-27 11:15:00
6:35 AM,60.6,55.4,83,30.20,10.0,SW,3.5,-,N/A,,Clear,230,2013-08-27 11:35:00
6:55 AM,61.3,55.8,82,30.20,10.0,Calm,Calm,-,N/A,,Clear,0,2013-08-27 11:55:00
7:15 AM,62.1,56.3,81,30.21,10.0,SSW,3.5,-,N/A,,Clear,210,2013-08-27 12:15:00
7:35 AM,60.1,55.4,85,30.22,10.0,South,3.5,-,N/A,,Clear,190,2013-08-27 12:35:00
7:55 AM,61.0,55.8,83,30.22,7.0,Calm,Calm,-,N/A,,Clear,0,2013-08-27 12:55:00
8:15 AM,64.2,57.2,78,30.22,10.0,SW,5.8,-,N/A,,Clear,220,2013-08-27 13:15:00
8:35 AM,67.1,57.6,71,30.22,10.0,SSW,8.1,-,N/A,,Clear,210,2013-08-27 13:35:00
8:55 AM,68.9,58.1,68,30.22,10.0,SSW,5.8,-,N/A,,Clear,200,2013-08-27 13:55:00
9:15 AM,71.6,59.0,64,30.23,10.0,SSW,6.9,-,N/A,,Clear,210,2013-08-27 14:15:00
9:35 AM,74.3,59.5,60,30.22,10.0,SSW,11.5,-,N/A,,Clear,210,2013-08-27 14:35:00
9:55 AM,77.0,59.9,55,30.22,10.0,SSW,13.8,-,N/A,,Clear,210,2013-08-27 14:55:00
10:15 AM,78.6,59.4,51,30.22,10.0,SSW,13.8,17.3,N/A,,Clear,210,2013-08-27 15:15:00
10:35 AM,79.3,59.0,50,30.23,10.0,SSW,15.0,-,N/A,,Clear,200,2013-08-27 15:35:00
10:55 AM,81.0,58.6,46,30.23,10.0,SW,12.7,-,N/A,,Clear,220,2013-08-27 15:55:00
11:15 AM,81.5,58.1,45,30.22,10.0,South,11.5,17.3,N/A,,Clear,180,2013-08-27 16:15:00
11:35 AM,82.8,57.9,43,30.22,10.0,SW,10.4,-,N/A,,Clear,220,2013-08-27 16:35:00
11:55 AM,82.6,57.0,42,30.22,10.0,SW,9.2,16.1,N/A,,Clear,220,2013-08-27 16:55:00
12:15 PM,83.3,56.1,39,30.21,10.0,South,5.8,16.1,N/A,,Clear,190,2013-08-27 17:15:00
12:35 PM,86.4,54.3,33,30.20,10.0,SE,10.4,18.4,N/A,,Scattered Clouds,130,2013-08-27 17:35:00
12:55 PM,86.0,52.2,31,30.19,10.0,SSE,5.8,19.6,N/A,,Scattered Clouds,150,2013-08-27 17:55:00
1:15 PM,84.0,51.8,33,30.18,10.0,South,4.6,9.2,N/A,,Scattered Clouds,170,2013-08-27 18:15:00
1:35 PM,84.6,51.4,32,30.18,10.0,South,9.2,-,N/A,,Scattered Clouds,170,2013-08-27 18:35:00
1:55 PM,88.0,50.0,27,30.17,10.0,SSE,11.5,16.1,N/A,,Scattered Clouds,160,2013-08-27 18:55:00
2:15 PM,87.3,51.4,29,30.17,10.0,SSW,5.8,9.2,N/A,,Scattered Clouds,210,2013-08-27 19:15:00
2:35 PM,89.4,51.4,27,30.17,10.0,South,11.5,20.7,N/A,,Scattered Clouds,190,2013-08-27 19:35:00
2:55 PM,89.4,50.5,26,30.15,10.0,SE,8.1,19.6,N/A,,Scattered Clouds,130,2013-08-27 19:55:00
3:15 PM,89.1,50.5,27,30.15,10.0,SE,13.8,17.3,N/A,,Scattered Clouds,140,2013-08-27 20:15:00
3:35 PM,88.2,49.1,26,30.14,10.0,SE,10.4,17.3,N/A,,Scattered Clouds,140,2013-08-27 20:35:00
3:55 PM,90.7,49.1,24,30.14,10.0,South,12.7,18.4,N/A,,Clear,170,2013-08-27 20:55:00
4:15 PM,88.2,48.9,26,30.14,10.0,South,15.0,20.7,N/A,,Scattered Clouds,180,2013-08-27 21:15:00
4:35 PM,88.9,48.9,25,30.14,10.0,SSE,10.4,18.4,N/A,,Scattered Clouds,160,2013-08-27 21:35:00
4:55 PM,90.3,48.2,23,30.13,10.0,South,17.3,21.9,N/A,,Mostly Cloudy,180,2013-08-27 21:55:00
5:15 PM,88.9,47.8,24,30.13,10.0,SSW,10.4,-,N/A,,Scattered Clouds,210,2013-08-27 22:15:00
5:35 PM,89.4,49.1,25,30.13,10.0,SSW,11.5,23.0,N/A,,Scattered Clouds,210,2013-08-27 22:35:00
5:55 PM,88.2,50.7,28,30.11,10.0,South,9.2,18.4,N/A,,Scattered Clouds,190,2013-08-27 22:55:00
6:15 PM,88.7,50.0,26,30.11,10.0,SW,5.8,17.3,N/A,,Scattered Clouds,220,2013-08-27 23:15:00
6:35 PM,88.2,50.5,27,30.11,10.0,SSE,11.5,-,N/A,,Scattered Clouds,160,2013-08-27 23:35:00
6:55 PM,86.9,52.0,30,30.10,10.0,SE,13.8,21.9,N/A,,Scattered Clouds,140,2013-08-27 23:55:00
7:15 PM,86.0,52.0,31,30.11,10.0,South,9.2,-,N/A,,Clear,170,2013-08-28 00:15:00
7:35 PM,85.1,52.3,32,30.11,10.0,SE,12.7,-,N/A,,Clear,140,2013-08-28 00:35:00
7:55 PM,83.7,51.4,33,30.11,10.0,South,11.5,-,N/A,,Clear,170,2013-08-28 00:55:00
8:15 PM,82.0,52.0,35,30.12,10.0,South,9.2,-,N/A,,Clear,170,2013-08-28 01:15:00
8:35 PM,80.6,52.7,38,30.12,10.0,SSE,8.1,-,N/A,,Clear,160,2013-08-28 01:35:00
8:55 PM,79.7,52.5,39,30.12,10.0,SSE,9.2,-,N/A,,Clear,160,2013-08-28 01:55:00
9:15 PM,77.9,52.9,42,30.12,10.0,South,8.1,-,N/A,,Clear,170,2013-08-28 02:15:00
9:35 PM,76.5,52.7,43,30.12,10.0,SSE,8.1,-,N/A,,Clear,160,2013-08-28 02:35:00
9:55 PM,76.5,52.5,43,30.13,10.0,SSE,6.9,-,N/A,,Clear,150,2013-08-28 02:55:00
10:15 PM,75.7,53.1,45,30.13,10.0,SSE,6.9,-,N/A,,Clear,150,2013-08-28 03:15:00
10:35 PM,74.7,52.9,46,30.13,10.0,SSE,6.9,-,N/A,,Clear,150,2013-08-28 03:35:00
10:55 PM,74.3,52.2,46,30.13,10.0,SSE,8.1,-,N/A,,Clear,160,2013-08-28 03:55:00
11:15 PM,72.3,52.2,49,30.13,10.0,SSE,6.9,-,N/A,,Clear,160,2013-08-28 04:15:00
11:35 PM,71.4,52.7,52,30.14,10.0,South,6.9,-,N/A,,Clear,170,2013-08-28 04:35:00
11:55 PM,71.1,52.7,52,30.14,10.0,South,5.8,-,N/A,,Clear,180,2013-08-28 04:55:00